Current Version              Previous Version:    01  02  03  04  05  06  07  08  09  10  11  12  13  14  15  16  17  18  19  20  21  22  23  24  25  26  27  28  29  30  
   31  32  33  34  35  36  37  38  39  40  41  42  43  44  45  46  47  48  49  50  51  52  53  54  55  56  57  58  59  60  

[Printable]
166
ASUS44 KEWX 301510
RWRTX
SOUTH TEXAS REGIONAL WEATHER ROUNDUP
NATIONAL WEATHER SERVICE AUSTIN/SAN ANTONIO TX
1000 AM CDT THU OCT 30 2014

NOTE: "FAIR" INDICATED FEW OR NO CLOUDS BELOW 12,000 FEET WITH NO
SIGNIFICANT WEATHER AND/OR OBSTRUCTIONS TO VISIBILITY.

* - THESE STATIONS ARE NOT NWS OR FAA STATIONS...AND ARE NOT SUBJECT
    TO NWS AND FAA QUALITY CONTROL.

TXZ171-172-183>190-301600-
TEXAS HILL COUNTRY AND EDWARDS PLATEAU

CITY           SKY/WX    TMP DP  RH WIND       PRES   REMARKS
JUNCTION       MOSUNNY   66  59  78 CALM      30.16R
*LLANO         CLOUDY    64  61  88 CALM      30.21R
BURNET         CLOUDY    66  58  75 SE6       30.19R
*HORSESHOE BAY CLOUDY    65  60  84 SE3       30.18R
*KERRVILLE     CLOUDY    64  61  90 SE5       30.17S
*FREDERICKSBRG CLOUDY    63  62  96 CALM      30.17S FOG
*ROCKSPRINGS   CLOUDY    66  63  88 MISG      30.20R
*BOERNE STAGE  CLOUDY    64  61  88 CALM      30.18R VSB 3/4
*CASTROVILLE   CLOUDY    68  65  90 E5        30.17R FOG
HONDO          CLOUDY    65  64  97 E6        30.17R FOG
*UVALDE        PTSUNNY   68  65  89 E5        30.15R FOG
DEL RIO        SUNNY     70  64  81 E10       30.12R
LAUGHLIN AFB   SUNNY     69  64  86 SE9       30.13R
CARRIZO SPRGS  SUNNY     68  64  88 SE6       30.12R
$$

TXZ173-191>194-202-209-217>225-228-301600-
CENTRAL AND SOUTH CENTRAL TEXAS

CITY           SKY/WX    TMP DP  RH WIND       PRES   REMARKS
GEORGETOWN     CLOUDY    64  54  68 SE6       30.17R
AUSTIN/BERGSTM MOSUNNY   65  57  75 E5        30.16R
AUSTIN/MABRY   MOSUNNY   67  54  63 VRB3      30.18R
*AUSTIN/EXEC   MOSUNNY   64  54  68 E6        30.18R
*LAGO VISTA    MOSUNNY   67  55  63 SE3       30.18R
SAN MARCOS     PTSUNNY   66  55  68 SE5       30.16S
NEW BRAUNFELS  CLOUDY    67  58  72 E7        30.15R
RANDOLPH AFB   CLOUDY    66  60  82 NE5       30.16R
PT SAN ANTONIO CLOUDY    69  63  82 E5        30.14R
SAN ANTONIO    CLOUDY    68  61  78 NE6       30.16R
STINSON FIELD  CLOUDY    69  62  78 VRB5      30.13R
*PLEASANTON    CLOUDY    70  64  80 E5        30.14R
*LA GRANGE     SUNNY     67  55  65 E6        30.13R
*GIDDINGS      PTSUNNY   65  52  63 E6        30.19S
*GONZALES      CLOUDY   N/A N/A N/A E5        30.14R
$$

TXZ163>164-176>182-195>201-210>213-226-227-235-301600-
SOUTHEAST TEXAS

CITY           SKY/WX    TMP DP  RH WIND       PRES   REMARKS
COLLEGE STN    SUNNY     64  48  56 E9        30.17R
*BRYAN         MOSUNNY   62  51  66 E5        30.19R
*CALDWELL      PTSUNNY   63  50  63 E5        30.20R
*CROCKETT      SUNNY     64  52  63 SE3       30.20S
*BRENHAM       SUNNY     65  50  57 E7        30.17R
HUNTSVILLE     SUNNY     62  50  64 E3        30.17R
CONROE         SUNNY     62  48  60 CALM      30.17R
HOUSTON BUSH   MOSUNNY   66  49  54 E10       30.15R
HOUSTON HOBBY  SUNNY     68  52  56 NE8       30.14R
*HOUSTON SW AP CLOUDY    63  53  71 NE5       30.15R
PEARLAND       SUNNY     69  55  60 E8        30.15R
HOUSTON HOOKS  SUNNY     64  50  60 E7        30.15S
ELLINGTON FLD  SUNNY     72  57  60 NE7       30.14R
SUGAR LAND     MOSUNNY   68  52  56 E6        30.14R
*HOUSTON EXEC  MOSUNNY   66 N/A N/A E8        30.15S
*CLEVELAND MUN SUNNY     62  53  72 CALM      30.17S
*WHARTON       NOT AVBL
*COLUMBUS      CLOUDY    66  55  69 E8        30.14S
$$

TXZ214>216-236>238-301600-
THE UPPER TEXAS COAST

CITY           SKY/WX    TMP DP  RH WIND       PRES   REMARKS
*ORANGE        SUNNY     63  48  57 NE8       30.16S
PORT ARTHUR    SUNNY     66  48  52 NE10      30.14R
GALVESTON      PTSUNNY   70  61  73 NE8       30.13R
ANGLETON       CLOUDY    67  59  75 NE9       30.13R
*BAY CITY        N/A     69  59  72 NE7       30.13R
PALACIOS       PTSUNNY   70  64  81 NE10      30.12R
$$

TXZ229>234-239>247-301600-
TEXAS COASTAL BEND AND RIO GRANDE PLAINS

CITY           SKY/WX    TMP DP  RH WIND       PRES   REMARKS
VICTORIA       MOSUNNY   73  63  70 NE7       30.13R
*BEEVILLE      CLOUDY    68  68 100 NE3       30.12R FOG
ROCKPORT       SUNNY     76  70  82 NE8       30.10R
*PORT ARANSAS  SUNNY     77  72  83 NE8       30.09S
*PORT LAVACA   NOT AVBL
*INGLESIDE     MOSUNNY   76  71  86 NE7       30.10R
CORPUS CHRISTI MOSUNNY   75  72  90 NE7       30.10R
CORPUS NAS     MOSUNNY   79  74  84 NE10      30.10R
*ROBSTOWN      FOG       73  72  97 NE6       30.11S VSB 1
ALICE          PTSUNNY   72  69  90 E3        30.11R
KINGSVILLE NAS MOSUNNY   79  73  82 NE5       30.11R
COTULLA        SUNNY     73  66  78 SE7       30.12S
*FAITH RANCH   SUNNY     72  64  78 E7        30.13R
LAREDO         SUNNY     73  65  76 E6        30.14R
$$

TXZ248>255-301600-
DEEP SOUTH TEXAS

CITY           SKY/WX    TMP DP  RH WIND       PRES   REMARKS
BROWNSVILLE    SUNNY     80  70  71 CALM      30.10R
PORT ISABEL    SUNNY     80  69  69 CALM      30.09R
*SOUTH PADRE     N/A    N/A N/A N/A CALM      30.09R
HARLINGEN      SUNNY     79  70  74 CALM      30.09R
*HEBBRONVILLE  MOSUNNY   68  67  97 CALM      30.13S
MCALLEN        SUNNY     78  70  76 CALM      30.11R
*WESLACO       SUNNY     78  68  72 CALM      30.10R HAZE
FALFURRIAS     CLOUDY    69  68  99 NE3       30.11R VSB 1/2
EDINBURG       SUNNY     76  69  78 NE5       30.11R
*ZAPATA        NOT AVBL
$$

TXZ213>215-236>238-242>244-246-247-251-254-255-301600-
CMAN STATIONS

STATION/POSITION TIME  TEMP    WIND        PRES    WAVE
                       AIR SEA DIR/SP/G            HT/PER
                 (UTC) (F)     (DEG/KT/KT) (MB)    (FT/S)
SABINE PASS      1500   65 75   80/ 13/ 16 1020.4
SEA RIM ST PARK  1500   65      70/ 12/ 14 1021.0
NORTH JETTY/GLS  1500   68 75   90/ 13/ 16   N/A
EAGLE POINT      1500   66 74   80/ 10/ 13 1020.4
MORGANS POINT    1500   65      80/ 10/ 12 1020.4
MISSION/ARANSAS  1400           40/  9     1020.0
PORT O`CONNOR    1500           30/ 10/ 11   N/A
PORT ARANSAS     1500   75 78   20/ 10/ 11 1019.7
MALAQUITE BEACH  1500   76 80   10/  9/ 10 1018.6
BAFFIN BAY       1500   76 83   10/  6/  7 1019.2
PORT ISABEL      1500   79 78  340/  4/  6 1019.0
$$

GMZ080-GMZ150>470-301600-
OFFSHORE BUOY REPORTS

STATION/POSITION TIME  TEMP    WIND        PRES    WAVE
                       AIR SEA DIR/SP/G            HT/PER
                 (UTC) (F)     (DEG/KT/KT) (MB)    (FT/S)
20 E GALVESTON   1500   71 77   70/ 12/ 14 1019.4    3/ 5
90 E PT ARANSAS  1500   76 79   40/  8/ 10 1019.4    2/ 5
35 NE PT MANSFLD 1500   78 80  330/  4/  6 1018.6    1/ 7
200 E PT ISABEL  1500   78 80   10/  6/  8 1018.3    2/ 6
$$